Location: Raleigh
(35.7720°N, 78.6390°W)
Time: 03:03:12
(UTC-04:00)

FO-29 - Visible Passes

Search period start: 20 April 2018 00:00
Search period end: 30 April 2018 00:00
Orbit: 801 x 1321 km, 98.5° (Epoch: 19 April)

Date Brightness Start Highest point End Pass type
(mag) Time Alt. Az. Time Alt. Az. Time Alt. Az.
20 Apr 13.3 05:54:45 10° ENE 05:56:26 11° NE 05:58:08 10° NE visible
20 Apr 9.8 20:31:11 10° NNE 20:38:39 71° E 20:45:15 10° S visible
20 Apr 12.3 22:17:35 10° NNW 22:22:45 21° WNW 22:27:36 10° WSW visible
21 Apr 10.8 21:21:25 10° N 21:28:32 50° WNW 21:34:54 10° SW visible
22 Apr 13.3 05:50:54 10° ENE 05:51:37 10° NE 05:52:20 10° NE visible
22 Apr 9.8 20:26:22 10° NNE 20:33:42 66° E 20:40:09 10° S visible
22 Apr 12.2 22:12:37 10° NNW 22:17:53 22° WNW 22:22:48 10° WSW visible
23 Apr 10.6 21:16:32 10° N 21:23:37 53° WNW 21:29:55 10° SW visible
24 Apr 9.8 20:21:33 10° NNE 20:28:44 61° E 20:35:03 10° S visible
24 Apr 12.1 22:07:40 10° NNW 22:13:01 23° WNW 22:17:58 10° WSW visible
25 Apr 10.5 21:11:39 10° N 21:18:42 57° WNW 21:24:56 10° SSW visible
26 Apr 9.8 20:16:45 10° NNE 20:23:45 56° E 20:29:54 10° S visible
26 Apr 12.0 22:02:42 10° NNW 22:08:08 24° WNW 22:13:07 10° WSW visible
27 Apr 10.3 21:06:47 10° N 21:13:46 60° WNW 21:19:55 10° SSW visible
28 Apr 11.9 21:57:45 10° NNW 22:03:14 25° WNW 22:08:15 10° WSW visible
29 Apr 10.2 21:01:54 10° N 21:08:49 64° WNW 21:14:53 10° SSW visible
